This is the latest recevied weather packets stored in our database for station/object DL4ABR-6. If no packets are shown the sender has not sent any weather packets the latest 10 day(s).
| Time | Temp. | Humidity | Pressure | Rain* | Wind** | Luminosity | Snow |
|---|---|---|---|---|---|---|---|
| 1778073730 | 10.56° C | 99% | 1003.3 hPa | 21.59 mm | - | - | - |
| 1778072990 | 10.56° C | 99% | 1003.1 hPa | 21.59 mm | - | - | - |
| 1778072265 | 10.56° C | 99% | 1003 hPa | 21.34 mm | - | - | - |
| 1778071535 | 10° C | 99% | 1003.1 hPa | 21.34 mm | - | - | - |
| 1778070800 | 10° C | 99% | 1002.9 hPa | 21.08 mm | - | - | - |
| 1778070075 | 10° C | 99% | 1003 hPa | 21.08 mm | - | - | - |
| 1778069180 | 10° C | 99% | 1003 hPa | 21.08 mm | - | - | - |
| 1778068362 | 10° C | 99% | 1002.9 hPa | 20.83 mm | - | - | - |
| 1778067590 | 9.44° C | 99% | 1003.1 hPa | 20.57 mm | - | - | - |
| 1778066840 | 9.44° C | 99% | 1002.9 hPa | 20.57 mm | - | - | - |
| 1778065950 | 9.44° C | 99% | 1002.9 hPa | 20.57 mm | - | - | - |
| 1778065230 | 10° C | 99% | 1002.8 hPa | 20.57 mm | - | - | - |
| 1778064474 | 9.44° C | 99% | 1002.8 hPa | 20.57 mm | - | - | - |
| 1778063585 | 9.44° C | 99% | 1002.9 hPa | 20.57 mm | - | - | - |
| 1778062850 | 9.44° C | 99% | 1002.7 hPa | 20.57 mm | - | - | - |
| 1778062070 | 8.89° C | 99% | 1002.9 hPa | 20.57 mm | - | - | - |
| 1778061185 | 8.89° C | 99% | 1002.8 hPa | 20.32 mm | - | - | - |
| 1778060450 | 8.89° C | 99% | 1002.6 hPa | 20.32 mm | - | - | - |
| 1778059680 | 8.89° C | 99% | 1002.7 hPa | 20.07 mm | - | - | - |
| 1778058880 | 8.33° C | 99% | 1002.7 hPa | 19.81 mm | - | - | - |
| 1778058105 | 8.33° C | 99% | 1002.5 hPa | 19.56 mm | - | - | - |
| 1778057370 | 8.33° C | 99% | 1002.5 hPa | 19.3 mm | - | - | - |
| 1778056595 | 8.33° C | 99% | 1002.5 hPa | 18.54 mm | - | - | - |
| 1778055810 | 7.78° C | 99% | 1002.3 hPa | 18.29 mm | - | - | - |
| 1778055015 | 7.78° C | 99% | 1002.4 hPa | 17.78 mm | - | - | - |
* Rain since midnight (hover to see other rain measurements)
** Current wind speed in m/s (hover to see current wind gust speed)